Weather History for Garden City, KS

Change the Weather History Date:

Friday, May 11, 2012

  Actual Average Record
Temperature  
Mean Temperature 59 °F 62 °F  
Max Temperature 72 °F 75 °F 100 °F (1962)
Min Temperature 48 °F 48 °F 28 °F (1979)
Degree Days  
Heating Degree Days 6 5  
Month to date heating degree days 68  
Since 1 July heating degree days 5130  
Cooling Degree Days 0 2  
Month to date cooling degree days 14  
Year to date cooling degree days 26  
Growing Degree Days 9 (Base 50)    
Moisture  
Dew Point 43 °F    
Average Humidity 53    
Maximum Humidity 74    
Minimum Humidity 40    
Precipitation  
Precipitation 0.00 in 0.09 in 1.43 in (1972)
Month to date precipitation 0.87  
Year to date precipitation 4.93  
Sea Level Pressure  
Sea Level Pressure 29.99 in    
Wind  
Wind Speed 10 mph (ENE)    
Max Wind Speed 22 mph    
Max Gust Speed 33 mph    
Visibility 10 miles    
Events      
T = Trace of Precipitation, MM = Missing Value Source: NWS Daily Summary

Daily Weather History Graph

Daily Weather History Graph

Search for Another Location

Airport:

Trip Planner

Search our weather history database for the weather conditions in past years. The results will help you decide how hot, cold, wet, or windy it might be!

Date:

Astronomy

May. 11, 2012 Rise Set
Actual Time 6:35 AM CDT 8:43 PM CDT
Civil Twilight 6:06 AM CDT 9:12 PM CDT
Nautical Twilight 5:30 AM CDT 9:48 PM CDT
Astronomical Twilight 4:52 AM CDT 10:27 PM CDT
Moon 1:24 AM CDT (5/11) 12:09 PM CDT (5/11)
Length of Visible Light 15h 05m
Length of Day
14h 07m
Waning Gibbous, 63% of the Moon is Illuminated
May 11
Waning Gibbous
May 12
Last Quarter
May 20
New
May 28
First Quarter
Jun 4
Full

Hourly Weather History & Observations

Time (CDT) Temp. Dew Point Humidity Pressure Visibility Wind Dir Wind Speed Gust Speed Precip Events Conditions
12:54 AM 57.0 °F 41.0 °F 55% 29.81 in 10.0 mi South 8.1 mph - N/A   Clear
1:54 AM 57.9 °F 39.9 °F 51% 29.82 in 10.0 mi South 10.4 mph - N/A   Clear
2:54 AM 55.0 °F 39.9 °F 57% 29.83 in 10.0 mi South 8.1 mph - N/A   Clear
3:54 AM 52.0 °F 39.9 °F 63% 29.83 in 10.0 mi South 5.8 mph - N/A   Clear
4:54 AM 53.1 °F 39.9 °F 61% 29.84 in 10.0 mi South 5.8 mph - N/A   Clear
5:54 AM 50.0 °F 39.9 °F 68% 29.88 in 10.0 mi East 3.5 mph - N/A   Clear
6:54 AM 48.9 °F 41.0 °F 74% 29.91 in 10.0 mi East 4.6 mph - N/A   Clear
7:54 AM 57.0 °F 43.0 °F 59% 29.93 in 10.0 mi East 4.6 mph - N/A   Clear
8:54 AM 63.0 °F 45.0 °F 52% 29.96 in 10.0 mi ESE 5.8 mph - N/A   Clear
9:54 AM 66.9 °F 45.0 °F 45% 29.98 in 10.0 mi ESE 8.1 mph - N/A   Clear
10:54 AM 69.1 °F 46.0 °F 44% 30.00 in 10.0 mi ESE 6.9 mph - N/A   Partly Cloudy
11:54 AM 66.0 °F 45.0 °F 47% 30.02 in 10.0 mi NNE 16.1 mph - N/A   Overcast
12:54 PM 64.0 °F 45.0 °F 50% 30.05 in 10.0 mi NNE 20.7 mph 33.4 mph N/A   Clear
1:54 PM 66.0 °F 45.0 °F 47% 30.07 in 10.0 mi NNE 20.7 mph 27.6 mph N/A   Partly Cloudy
2:54 PM 66.9 °F 46.0 °F 47% 30.07 in 10.0 mi NE 16.1 mph 24.2 mph N/A   Mostly Cloudy
3:54 PM 70.0 °F 46.0 °F 42% 30.06 in 10.0 mi NE 13.8 mph - N/A   Partly Cloudy
4:54 PM 70.0 °F 45.0 °F 41% 30.05 in 10.0 mi NE 15.0 mph 24.2 mph N/A   Partly Cloudy
5:54 PM 69.1 °F 44.1 °F 40% 30.06 in 10.0 mi ENE 11.5 mph - N/A   Mostly Cloudy
6:54 PM 68.0 °F 44.1 °F 42% 30.07 in 10.0 mi NNE 21.9 mph 26.5 mph N/A   Partly Cloudy
7:54 PM 64.9 °F 44.1 °F 47% 30.09 in 10.0 mi NNE 17.3 mph - N/A   Clear
8:54 PM 61.0 °F 45.0 °F 56% 30.10 in 10.0 mi NE 10.4 mph - N/A   Clear
9:54 PM 57.9 °F 44.1 °F 60% 30.12 in 10.0 mi NE 10.4 mph - N/A   Clear
10:54 PM 57.0 °F 43.0 °F 59% 30.15 in 10.0 mi NE 10.4 mph - N/A   Clear
11:54 PM 59.0 °F 42.1 °F 53% 30.17 in 10.0 mi NE 18.4 mph - N/A   Overcast